Regional Weather Roundup
Issued by NWS Cleveland, OH

Home | Current Version | Previous Version | Text Only | Print | Product List | Glossary Off
Versions: 1 2 3 4 5 6 7 8 9 10 11 12 13 14 15 16 17 18 19 20 21 22 23 24 25 26 27 28 29 30 31 32 33 34 35 36 37 38 39 40 41 42 43 44 45 46 47 48 49 50

000
ASUS41 KCLE 282310
RWRCLE
OHIO REGIONAL WEATHER ROUNDUP
NATIONAL WEATHER SERVICE WILMINGTON, OH
700 PM EDT THU AUG 28 2014

NOTE: "FAIR" INDICATES FEW OR NO CLOUDS BELOW 12,000 FEET WITH NO
SIGNIFICANT WEATHER AND/OR OBSTRUCTIONS TO VISIBILITY.

OHZ001>008-015>018-024>027-034-035-043-044-290000-
   NORTHWEST OHIO

CITY           SKY/WX    TMP DP  RH WIND       PRES   REMARKS
DEFIANCE       MOSUNNY   75  58  55 NE5       30.09S
FINDLAY        SUNNY     74  57  55 E9        30.09S
TOLEDO EXPRESS SUNNY     72  57  59 E8        30.10S
TOLEDO METCALF SUNNY     70  55  59 E7        30.11F
LIMA           MOSUNNY   76  62  62 E6        30.09S
$$

OHZ009>014-019>023-028>033-038-089-290000-
   NORTHEAST OHIO

CITY           SKY/WX    TMP DP  RH WIND       PRES   REMARKS
CLE-HOPKINS    MOSUNNY   67  51  56 NE8       30.14F
CLE-LAKEFRONT  PTSUNNY   68  52  56 N6        30.11F
CUY CO. ARPT   MOSUNNY   68  52  56 NE9       30.12F
LORAIN-ELYRIA  SUNNY     69  51  52 E8        30.13S
ASHTABULA      SUNNY     65  50  58 NW3       30.13S
AKRON-CANTON   MOSUNNY   70  48  45 N7        30.11S
WOOSTER        SUNNY     70  56  61 N5        30.12S
MANSFIELD      SUNNY     70  55  59 N6        30.12S
YOUNGSTOWN     MOSUNNY   68  51  54 N9        30.11S
$$

OHZ042-051>053-060>062-070>072-077>081-290000-
  SOUTHWEST OHIO

CITY           SKY/WX    TMP DP  RH WIND       PRES   REMARKS
CINC-COVINGTON MOSUNNY   82  63  52 E7        30.04S
CINC-LUNKEN    MOSUNNY   82  64  54 E10       30.03S
HAMILTON       SUNNY     81  64  56 E9        30.05S
DAYTON         PTSUNNY   78  62  57 E8        30.08S
WRIGHT-PAT AFB MOSUNNY   79  61  53 E7        30.07S
DAYTON GENERAL SUNNY     77  63  61 E7        30.06S
WILMINGTON     SUNNY     75  61  61 NE8       30.07S
$$

OHZ036-037-039>041-045>050-054>059-063>069-073>076-082>088-290000-
  CENTRAL AND SOUTHEAST OHIO

CITY           SKY/WX    TMP DP  RH WIND       PRES   REMARKS
COLUMBUS       MOSUNNY   76  58  53 NE7       30.07F
OSU AIRPORT    SUNNY     76  59  55 N6        30.08S
BOLTON FIELD   MOSUNNY   75  63  64 NE5       30.08S
RICKENBACK AFB SUNNY     77  55  46 E6        30.07F
NEWARK         SUNNY     75  56  51 NE5       30.08F
MARION         SUNNY     73  58  59 NE7       30.10S
LANCASTER      SUNNY     74  60  61 NE5       30.09S
ZANESVILLE     SUNNY     74  54  49 N6        30.09S
NEW PHILLY     SUNNY     71  56  58 N5        30.10S
$$



USA.gov is the U.S. government's official web portal to all federal, state and local government web resources and services.